Beatty, Nevada Weather observations

Data are for observation ending at time listed.
 Day   Time    Ave.   Ave.  Ave.  Vector   Max.   Stn.    Total    Solar   Ave.  
  of    of     Air    Rel.  Wind   Wind    Wind   Baro.  Precip.   Rad.    Soil  
Year   Day     Temp.  Hum.  Speed  Dir.    Gust   Pres.                    Temp. 
2014   (PST)    F      %     mph   deg.    mph     mb.     in.     W/m2     F   
------------------------------------------------------------------------------
 302    4:40   46.4    30    9.2   356     12.4   905.7    0.00       0    67.9
 302    4:50   46.6    29    6.7     8     14.5   905.8    0.00       0    67.9
 302    5:00   46.3    30    5.9    19     10.6   905.9    0.00       0    67.8
 302    5:10   46.7    29    5.9    11     12.6   905.9    0.00       0    67.7
 302    5:20   47.7    28    7.4     6     12.3   906.0    0.00       0    67.7
 302    5:30   47.0    29    6.8   358     11.2   906.1    0.00       0    67.6
 302    5:40   47.1    29    8.9   357     14.0   906.0    0.00       0    67.6
 302    5:50   46.8    30    8.0   359     12.8   906.1    0.00       0    67.5
 302    6:00   46.9    30    6.2    12     10.8   906.2    0.00       0    67.5
 302    6:10   47.1    30    5.8     8      9.1   906.2    0.00       2    67.4
 302    6:20   46.9    30    8.1   357     11.9   906.2    0.00       5    67.4
 302    6:30   47.4    30    6.2    11     12.5   906.2    0.00       7    67.3
 302    6:40   48.2    29    6.1     6     10.9   906.4    0.00      10    67.3
 302    6:50   48.8    28    6.6     6     10.6   906.5    0.00      12    67.2
 302    7:00   49.9    27    6.3    14     12.0   906.6    0.00      14    67.2
 302    7:10   51.3    26    4.9    28     11.9   906.8    0.00      16    67.1
 302    7:20   52.1    26    4.3    31     10.7   906.9    0.00     160    67.0
 302    7:30   53.3    25    6.0    27     10.7   907.1    0.00     195    67.0
 302    7:40   54.4    24    6.9    27     11.8   907.0    0.00     228    66.9
 302    7:50   55.3    23    6.5    26     11.6   907.1    0.00     255    66.8
 302    8:00   56.1    23    6.0    23     12.3   907.1    0.00     280    66.8
 302    8:10   56.9    22    5.1    23     10.6   907.1    0.00     306    66.7
 302    8:20   58.0    22    4.5    29      9.0   907.1    0.00     331    66.7
 302    8:30   59.2    21    4.2    34     10.0   907.1    0.00     353    66.6
 302    8:40   60.4    20    4.9    25     10.2   907.0    0.00     374    66.5
 302    8:50   61.7    19    4.0    24      8.3   907.0    0.00     393    66.5
 302    9:00   63.0    19    4.0    42      9.2   907.0    0.00     409    66.4
 302    9:10   64.0    18    3.8    42      8.2   906.9    0.00     426    66.4
 302    9:20   65.0    17    3.8    25      9.9   906.9    0.00     442    66.4
 302    9:30   66.3    17    3.2    43      8.4   906.8    0.00     459    66.3
 302    9:40   67.3    16    3.6    64      8.6   906.7    0.00     473    66.3
 302    9:50   68.2    16    4.3    72      8.8   906.8    0.00     488    66.2
 302   10:00   68.7    16    4.8    76     10.7   906.8    0.00     501    66.2
 302   10:10   69.9    15    4.7    79     10.3   906.6    0.00     513    66.2
 302   10:20   70.7    15    4.5    75      9.6   906.5    0.00     524    66.2
 302   10:30   71.5    14    4.3    79     10.7   906.4    0.00     534    66.1
 302   10:40   72.3    14    5.0    77      9.0   906.3    0.00     542    66.1
 302   10:50   72.9    14    4.2    80      7.7   906.2    0.00     549    66.1
 302   11:00   73.2    14    4.6    85      8.6   906.2    0.00     555    66.1
 302   11:10   74.9    13    2.5    75      5.7   906.1    0.00     557    66.1
 302   11:20   75.7    13    2.4    72      4.2   905.9    0.00     559    66.1
 302   11:30   76.6    13    1.6   129      3.9   905.8    0.00     560    66.1
 302   11:40   76.7    12    2.4   242      4.1   905.6    0.00     559    66.1
 302   11:50   76.3    12    2.1   298      6.6   905.3    0.00     561    66.1
 302   12:00   77.3    12    2.6   242      5.4   905.1    0.00     556    66.1
 302   12:10   77.3    12    2.2   212      4.7   905.0    0.00     547    66.1
 302   12:20   78.6    11    1.4   251      5.0   904.8    0.00     545    66.1
 302   12:30   79.6    10    1.8   185      5.0   904.7    0.00     536    66.1
 302   12:40   79.3    11    4.0   195      8.4   904.5    0.00     527    66.2
 302   12:50   79.1    11    2.8   198      6.1   904.3    0.00     428    66.2
 302   13:00   79.5    11    4.1   183      8.8   904.2    0.00     247    66.3
 302   13:10   78.9    11    2.5   249      6.3   904.1    0.00     497    66.3
 302   13:20   80.0    11    3.7   169      7.8   903.9    0.00     481    66.4
 302   13:30   80.0    11    3.2   205      6.7   903.8    0.00     430    66.5
 302   13:40   79.9    10    2.6   225      7.4   903.8    0.00     451    66.6
 302   13:50   80.2    10    3.5   185      6.6   903.7    0.00     432    66.6
 302   14:00   80.3    10    2.3   224      6.4   903.7    0.00     418    66.7
 302   14:10   80.4    10    3.0   195      6.8   903.5    0.00     396    66.8
 302   14:20   79.9    10    3.7   199      6.7   903.4    0.00     374    66.9
 302   14:30   80.2    10    1.9   240      6.7   903.3    0.00     302    67.0
 302   14:40   80.2    10    3.2   209      7.2   903.3    0.00     331    67.1
 302   14:50   80.1    10    2.1   228      8.0   903.3    0.00     299    67.2
 302   15:00   79.7    10    4.0   224      6.3   903.2    0.00      30    67.3
 302   15:10   80.0    10    3.9   212      6.6   903.2    0.00      23    67.4
 302   15:20   80.1    10    4.3   212      7.9   903.2    0.00      27    67.5
 302   15:30   79.6    10    4.9   215      8.3   903.2    0.00      48    67.5
 302   15:40   79.9    10    4.5   220      7.5   903.1    0.00      37    67.6
 302   15:50   80.1    10    4.9   215      7.7   903.1    0.00      21    67.7
 302   16:00   79.1    10    4.3   213      7.4   903.1    0.00      23    67.8
 302   16:10   79.2    10    4.2   221      8.1   903.0    0.00      54    67.9
 302   16:20   79.3    10    3.8   219      7.3   903.0    0.00      17    68.0
 302   16:30   77.7    10    3.8   221      5.8   902.9    0.00      32    68.1
 302   16:40   76.4    11    2.9   224      4.3   902.9    0.00      16    68.1
 302   16:50   75.5    11    2.2   230      5.3   902.9    0.00       6    68.2
 302   17:00   73.9    12    0.9   243      2.3   903.0    0.00       3    68.3
 302   17:10   72.4    13    0.8   258      1.7   903.0    0.00       1    68.4
 302   17:20   70.6    15    0.7   298      1.2   903.1    0.00       0    68.5
 302   17:30   69.1    15    0.5   327      1.0   903.2    0.00       0    68.6
 302   17:40   67.3    15    0.6   359      1.3   903.2    0.00       0    68.6
 302   17:50   66.5    15    0.4    50      1.7   903.3    0.00       0    68.7
 302   18:00   65.8    15    2.2    60      4.1   903.4    0.00       0    68.7
 302   18:10   64.3    15    2.0    47      4.6   903.5    0.00       0    68.7
 302   18:20   62.7    15    1.9    53      4.0   903.7    0.00       0    68.8
 302   18:30   61.5    16    2.4    54      4.7   903.8    0.00       0    68.8
 302   18:40   60.1    16    2.5    66      4.5   903.9    0.00       0    68.9
 302   18:50   59.1    17    2.3    60      3.8   903.9    0.00       0    69.0
 302   19:00   57.9    18    1.8    55      3.5   903.9    0.00       0    69.0
 302   19:10   57.5    18    2.1    58      4.3   904.0    0.00       0    69.1
 302   19:20   56.2    19    2.2    66      3.9   904.0    0.00       0    69.1
 302   19:30   55.9    20    1.5    59      2.6   904.0    0.00       0    69.1
 302   19:40   55.4    20    1.4    63      2.6   904.1    0.00       0    69.2
 302   19:50   54.7    20    1.9    59      3.1   904.1    0.00       0    69.2
 302   20:00   56.2    19    3.4     3      6.2   904.1    0.00       0    69.2
 302   20:10   58.1    18    3.7     7      6.1   904.1    0.00       0    69.3
 302   20:20   58.1    18    4.3     1      7.5   904.2    0.00       0    69.3
 302   20:30   57.7    18    4.6     1      7.7   904.2    0.00       0    69.3
 302   20:40   57.4    19    4.7   357      7.7   904.4    0.00       0    69.3
 302   20:50   57.8    18    5.1   355      7.9   904.5    0.00       0    69.3
 302   21:00   58.4    18    6.1   353      8.5   904.6    0.00       0    69.4
 302   21:10   56.9    19    6.6   354      9.3   904.6    0.00       0    69.4
 302   21:20   57.0    19    5.2   350      8.6   904.6    0.00       0    69.4
 302   21:30   58.1    18    5.0     6      7.9   904.7    0.00       0    69.4
 302   21:40   57.5    19    5.6   351      9.3   904.8    0.00       0    69.4
 302   21:50   54.5    20    7.3   355      9.6   904.9    0.00       0    69.4
 302   22:00   55.0    20    6.4   352      9.0   904.9    0.00       0    69.4
 302   22:10   54.8    20    6.6   354      9.4   904.8    0.00       0    69.4
 302   22:20   54.2    20    5.4   356      8.4   904.8    0.00       0    69.4
 302   22:30   55.4    20    5.1     6      8.4   904.9    0.00       0    69.4
 302   22:40   55.2    20    5.3     7      8.6   904.8    0.00       0    69.4
 302   22:50   53.7    20    5.4     5      8.3   904.7    0.00       0    69.4
 302   23:00   52.8    21    5.0     3      8.8   904.7    0.00       0    69.4
 302   23:10   52.2    21    6.2   358     10.4   904.6    0.00       0    69.4
 302   23:20   52.2    21    7.4   358     11.8   904.6    0.00       0    69.4
 302   23:30   52.3    21    6.9   357     10.6   904.6    0.00       0    69.3
 302   23:40   51.9    21    5.2     6      8.4   904.5    0.00       0    69.3
 302   23:50   52.6    21    5.7     4      9.6   904.6    0.00       0    69.3
 303    0:00   52.0    22    5.5     0      9.1   904.5    0.00       0    69.2
 303    0:10   50.3    23    8.0   356     11.6   904.5    0.00       0    69.2
 303    0:20   49.6    23    6.1   357     10.1   904.5    0.00       0    69.2
 303    0:30   49.5    23    5.5     4      9.9   904.5    0.00       0    69.2
 303    0:40   50.5    22    5.7     5      9.3   904.4    0.00       0    69.1
 303    0:50   51.9    22    5.8    22     10.2   904.4    0.00       0    69.1
 303    1:00   53.7    20    3.5    36      8.0   904.4    0.00       0    69.0
 303    1:10   52.5    21    5.8    23     10.4   904.4    0.00       0    69.0
 303    1:20   52.8    21    6.1    26     10.5   904.4    0.00       0    68.9
 303    1:30   51.9    22    6.0    11     10.5   904.4    0.00       0    68.9
 303    1:40   48.8    24    6.2     3      9.9   904.4    0.00       0    68.9
 303    1:50   48.8    24    5.2    13      9.7   904.4    0.00       0    68.8
 303    2:00   49.3    24    5.6     7      8.9   904.3    0.00       0    68.8
 303    2:10   50.7    23    5.7    23     10.7   904.3    0.00       0    68.7
 303    2:20   51.0    22    5.2    25      9.4   904.4    0.00       0    68.7
 303    2:30   48.2    24    5.1    23      8.9   904.3    0.00       0    68.6
 303    2:40   48.8    24    6.2    23     10.4   904.2    0.00       0    68.6
 303    2:50   51.3    23    6.0    22     10.8   904.2    0.00       0    68.5
 303    3:00   49.9    23    6.8     7     11.0   904.2    0.00       0    68.5
 303    3:10   47.8    25    5.1    14      9.6   904.1    0.00       0    68.4
 303    3:20   47.6    25    5.3    28      9.9   904.1    0.00       0    68.4
 303    3:30   47.0    26    4.8    24      9.9   904.1    0.00       0    68.3
 303    3:40   47.2    25    5.5    26      9.9   904.0    0.00       0    68.3
 303    3:50   47.2    25    5.8    18      9.3   904.1    0.00       0    68.2
 303    4:00   47.6    26    6.0    22     10.6   904.0    0.00       0    68.1
 303    4:10   47.5    26    5.5    24     10.5   904.0    0.00       0    68.1
 303    4:20   47.7    26    6.3    18     11.2   904.0    0.00       0    68.0
 303    4:30   49.0    25    6.4    24     12.3   903.9    0.00       0    68.0

Return to Beatty, Nevada graphs page.


Western Regional Climate Center,wrcc@dri.edu